QPF
0.02 0.02 0.01 0.00 0.01 0.04 0.09 0.08 0.06 0.05 0.05 0.04 0.03 0.02 0.02 0.04 0.07 0.08 0.14 0.08 0.04 0.03 0.02 0.01 0.01 0.01 0.01 0.00 0.01 0.01 0.01 0.01 0.02 0.04 0.05 0.03 0.02 0.01 0.00 0.00 0.00 0.01 0.04
0.03 0.03 0.02 0.01 0.01 0.01 0.01 0.04 0.06 0.07 0.08 0.10 0.05 0.01 0.01 0.01 0.03 0.05 0.05 0.13 0.13 0.04 0.03 0.01 0.00 0.01 0.01 0.00 0.01 0.01 0.03 0.02 0.02 0.03 0.05 0.04 0.01 0.01 0.00 0.00 0.00 0.00 0.01
0.07 0.06 0.06 0.04 0.02 0.03 0.05 0.05 0.05 0.06 0.04 0.04 0.04 0.04 0.03 0.02 0.02 0.04 0.04 0.08 0.11 0.05 0.04 0.02 0.01 0.01 0.01 0.01 0.01 0.01 0.02 0.01 0.01 0.01 0.03 0.03 0.02 0.02 0.00 0.00 0.00 0.00 0.00
0.08 0.11 0.11 0.08 0.08 0.13 0.16 0.16 0.15 0.13 0.09 0.06 0.04 0.04 0.03 0.03 0.02 0.03 0.02 0.03 0.04 0.02 0.06 0.10 0.04 0.01 0.01 0.01 0.01 0.02 0.02 0.01 0.00 0.01 0.01 0.02 0.02 0.01 0.00 0.00 0.00 0.00 0.00
0.02 0.06 0.06 0.09 0.15 0.18 0.20 0.19 0.13 0.13 0.12 0.11 0.09 0.10 0.06 0.02 0.01 0.00 0.00 0.00 0.01 0.01 0.01 0.08 0.03 0.03 0.03 0.03 0.04 0.06 0.05 0.03 0.03 0.02 0.02 0.01 0.01 0.01 0.00 0.00 0.00 0.00 0.00
0.02 0.03 0.02 0.02 0.05 0.09 0.12 0.17 0.18 0.19 0.18 0.18 0.09 0.06 0.02 0.01 0.00 0.00 0.00 0.00 0.00 0.00 0.00 0.01 0.08 0.08 0.06 0.05 0.08 0.08 0.10 0.08 0.05 0.03 0.03 0.02 0.01 0.01 0.01 0.00 0.00 0.00 0.00
0.08 0.08 0.06 0.05 0.04 0.06 0.08 0.09 0.12 0.17 0.18 0.19 0.13 0.06 0.01 0.00 0.00 0.00 0.00 0.00 0.00 0.00 0.00 0.00 0.02 0.05 0.17 0.17 0.13 0.10 0.13 0.12 0.07 0.04 0.02 0.02 0.01 0.01 0.01 0.01 0.01 0.01 0.00
0.12 0.09 0.06 0.06 0.06 0.08 0.11 0.10 0.11 0.15 0.18 0.22 0.16 0.10 0.04 0.01 0.00 0.00 0.00 0.00 0.00 0.00 0.00 0.00 0.00 0.04 0.12 0.26 0.21 0.14 0.10 0.10 0.07 0.04 0.04 0.03 0.01 0.01 0.02 0.02 0.02 0.02 0.01
0.11 0.10 0.07 0.07 0.08 0.10 0.17 0.21 0.23 0.25 0.21 0.22 0.20 0.15 0.08 0.03 0.02 0.00 0.00 0.00 0.00 0.00 0.00 0.00 0.02 0.06 0.13 0.20 0.20 0.19 0.15 0.09 0.09 0.11 0.10 0.07 0.03 0.01 0.02 0.03 0.02 0.01 0.01
0.07 0.06 0.08 0.16 0.19 0.22 0.26 0.26 0.27 0.30 0.28 0.24 0.22 0.18 0.12 0.09 0.07 0.02 0.00 0.00 0.01 0.01 0.02 0.03 0.02 0.04 0.10 0.16 0.20 0.21 0.23 0.11 0.08 0.10 0.10 0.09 0.08 0.03 0.01 0.01 0.03 0.04 0.03
0.03 0.02 0.02 0.06 0.14 0.21 0.26 0.27 0.27 0.29 0.31 0.27 0.22 0.18 0.14 0.13 0.10 0.06 0.01 0.02 0.06 0.07 0.07 0.07 0.05 0.03 0.02 0.05 0.09 0.14 0.25 0.17 0.11 0.09 0.09 0.09 0.08 0.06 0.02 0.01 0.04 0.10 0.10
0.03 0.02 0.01 0.03 0.07 0.09 0.11 0.17 0.19 0.21 0.21 0.20 0.19 0.18 0.14 0.09 0.07 0.09 0.06 0.05 0.06 0.10 0.12 0.12 0.13 0.08 0.05 0.04 0.05 0.08 0.08 0.13 0.14 0.11 0.05 0.02 0.02 0.02 0.01 0.01 0.02 0.07 0.12
0.05 0.04 0.03 0.06 0.11 0.11 0.10 0.12 0.16 0.20 0.21 0.20 0.19 0.18 0.15 0.11 0.10 0.12 0.12 0.08 0.05 0.09 0.13 0.17 0.13 0.10 0.09 0.17 0.20 0.13 0.11 0.11 0.11 0.09 0.04 0.02 0.03 0.02 0.01 0.01 0.00 0.01 0.03
0.05 0.08 0.10 0.11 0.10 0.11 0.13 0.18 0.22 0.23 0.21 0.19 0.16 0.16 0.15 0.11 0.10 0.10 0.09 0.06 0.05 0.07 0.12 0.11 0.04 0.04 0.05 0.09 0.10 0.11 0.23 0.17 0.11 0.06 0.03 0.02 0.01 0.01 0.01 0.01 0.01 0.00 0.00
0.03 0.03 0.06 0.14 0.14 0.15 0.18 0.21 0.23 0.24 0.21 0.20 0.18 0.17 0.13 0.08 0.05 0.03 0.03 0.04 0.04 0.03 0.05 0.05 0.03 0.04 0.03 0.03 0.03 0.07 0.22 0.28 0.17 0.06 0.02 0.01 0.00 0.01 0.01 0.01 0.01 0.01 0.01
0.02 0.01 0.03 0.08 0.09 0.10 0.11 0.16 0.22 0.24 0.24 0.23 0.19 0.14 0.10 0.06 0.03 0.03 0.03 0.04 0.04 0.03 0.02 0.02 0.03 0.03 0.03 0.02 0.01 0.03 0.14 0.21 0.14 0.06 0.02 0.01 0.01 0.01 0.02 0.03 0.03 0.02 0.02
0.02 0.01 0.00 0.01 0.01 0.01 0.01 0.04 0.11 0.13 0.14 0.11 0.07 0.05 0.03 0.03 0.02 0.01 0.01 0.02 0.03 0.03 0.02 0.03 0.06 0.09 0.10 0.09 0.07 0.08 0.07 0.09 0.12 0.09 0.03 0.02 0.01 0.02 0.03 0.05 0.04 0.04 0.04
0.05 0.02 0.00 0.00 0.00 0.01 0.01 0.03 0.04 0.05 0.04 0.03 0.02 0.01 0.01 0.01 0.01 0.00 0.00 0.00 0.00 0.02 0.03 0.03 0.06 0.07 0.09 0.09 0.07 0.09 0.08 0.06 0.09 0.12 0.07 0.04 0.03 0.03 0.05 0.04 0.03 0.03 0.05
0.10 0.06 0.03 0.02 0.03 0.04 0.07 0.08 0.04 0.01 0.01 0.01 0.01 0.01 0.00 0.00 0.00 0.00 0.00 0.00 0.00 0.02 0.03 0.03 0.04 0.05 0.05 0.04 0.02 0.04 0.06 0.11 0.13 0.11 0.07 0.06 0.07 0.08 0.11 0.08 0.04 0.04 0.06
0.07 0.04 0.02 0.02 0.02 0.04 0.06 0.04 0.01 0.00 0.01 0.01 0.01 0.01 0.00 0.00 0.00 0.00 0.00 0.01 0.01 0.02 0.01 0.01 0.01 0.01 0.02 0.01 0.01 0.01 0.02 0.07 0.14 0.13 0.12 0.16 0.20 0.20 0.19 0.15 0.09 0.06 0.06
0.02 0.01 0.01 0.01 0.01 0.01 0.01 0.00 0.01 0.02 0.04 0.02 0.01 0.00 0.00 0.00 0.00 0.00 0.00 0.01 0.02 0.02 0.01 0.00 0.00 0.00 0.00 0.00 0.00 0.00 0.02 0.06 0.11 0.13 0.15 0.20 0.24 0.24 0.22 0.20 0.15 0.09 0.04
0.01 0.00 0.01 0.01 0.00 0.00 0.00 0.00 0.01 0.01 0.01 0.00 0.00 0.00 0.00 0.00 0.00 0.00 0.00 0.00 0.00 0.00 0.01 0.01 0.00 0.00 0.00 0.00 0.00 0.01 0.01 0.03 0.03 0.08 0.21 0.26 0.21 0.26 0.46 0.47 0.29 0.12 0.04
0.00 0.01 0.01 0.00 0.00 0.00 0.00 0.00 0.00 0.00 0.00 0.00 0.00 0.00 0.00 0.00 0.00 0.00 0.00 0.00 0.00 0.00 0.00 0.01 0.00 0.00 0.00 0.00 0.00 0.02 0.05 0.05 0.04 0.02 0.04 0.05 0.07 0.17 0.49 0.67 0.40 0.16 0.08
0.02 0.04 0.03 0.01 0.00 0.00 0.00 0.00 0.00 0.00 0.00 0.00 0.00 0.00 0.00 0.00 0.00 0.00 0.00 0.00 0.00 0.00 0.00 0.00 0.00 0.00 0.00 0.00 0.00 0.02 0.07 0.08 0.09 0.04 0.02 0.01 0.03 0.08 0.16 0.27 0.29 0.16 0.08
0.04 0.05 0.04 0.01 0.00 0.00 0.00 0.00 0.00 0.00 0.00 0.00 0.00 0.00 0.00 0.00 0.00 0.00 0.00 0.00 0.00 0.00 0.00 0.00 0.00 0.00 0.00 0.00 0.00 0.00 0.02 0.02 0.05 0.05 0.04 0.05 0.05 0.06 0.07 0.10 0.17 0.22 0.15
0.05 0.05 0.05 0.02 0.00 0.00 0.00 0.00 0.00 0.00 0.01 0.00 0.00 0.00 0.00 0.00 0.00 0.00 0.00 0.00 0.00 0.00 0.00 0.00 0.00 0.00 0.00 0.00 0.00 0.01 0.02 0.03 0.03 0.04 0.02 0.05 0.06 0.05 0.05 0.07 0.08 0.14 0.21
MSLP
1011.65 1011.78 1011.89 1011.97 1012.05 1012.15 1012.26 1012.40 1012.54 1012.66 1012.73 1012.76 1012.72 1012.64 1012.54 1012.45 1012.40 1012.41 1012.49 1012.65 1012.85 1013.07 1013.28 1013.47 1013.62 1013.73 1013.81 1013.88 1013.95 1014.04 1014.16 1014.31 1014.50 1014.72 1014.96 1015.20 1015.46 1015.70 1015.95 1016.18 1016.42 1016.65 1016.88
1010.90 1011.07 1011.23 1011.37 1011.50 1011.63 1011.77 1011.91 1012.05 1012.16 1012.23 1012.25 1012.21 1012.14 1012.04 1011.95 1011.88 1011.87 1011.92 1012.05 1012.22 1012.43 1012.64 1012.85 1013.03 1013.17 1013.28 1013.37 1013.45 1013.54 1013.65 1013.80 1013.98 1014.20 1014.44 1014.70 1014.98 1015.24 1015.51 1015.76 1016.00 1016.24 1016.48
1010.27 1010.47 1010.67 1010.86 1011.04 1011.21 1011.38 1011.52 1011.65 1011.76 1011.82 1011.83 1011.79 1011.71 1011.60 1011.47 1011.37 1011.31 1011.31 1011.37 1011.49 1011.67 1011.87 1012.08 1012.28 1012.46 1012.60 1012.73 1012.83 1012.94 1013.06 1013.21 1013.39 1013.62 1013.87 1014.15 1014.44 1014.74 1015.03 1015.30 1015.56 1015.82 1016.07
1009.78 1009.99 1010.22 1010.45 1010.67 1010.88 1011.06 1011.21 1011.34 1011.43 1011.48 1011.48 1011.43 1011.33 1011.19 1011.03 1010.87 1010.74 1010.66 1010.65 1010.70 1010.82 1010.98 1011.19 1011.40 1011.60 1011.79 1011.95 1012.09 1012.23 1012.37 1012.53 1012.72 1012.95 1013.22 1013.52 1013.84 1014.16 1014.48 1014.78 1015.07 1015.34 1015.61
1009.41 1009.61 1009.86 1010.12 1010.37 1010.60 1010.79 1010.95 1011.07 1011.15 1011.19 1011.17 1011.11 1010.99 1010.82 1010.62 1010.41 1010.21 1010.04 1009.93 1009.90 1009.95 1010.07 1010.24 1010.45 1010.67 1010.88 1011.07 1011.24 1011.41 1011.57 1011.75 1011.96 1012.20 1012.49 1012.81 1013.15 1013.50 1013.85 1014.18 1014.49 1014.78 1015.07
1009.11 1009.29 1009.54 1009.82 1010.09 1010.34 1010.54 1010.70 1010.82 1010.89 1010.92 1010.90 1010.82 1010.69 1010.51 1010.28 1010.02 1009.75 1009.51 1009.31 1009.20 1009.16 1009.22 1009.34 1009.52 1009.73 1009.95 1010.16 1010.36 1010.54 1010.73 1010.92 1011.15 1011.41 1011.71 1012.05 1012.41 1012.78 1013.15 1013.49 1013.82 1014.13 1014.43
1008.81 1008.97 1009.22 1009.51 1009.80 1010.06 1010.28 1010.45 1010.57 1010.64 1010.67 1010.65 1010.58 1010.45 1010.27 1010.02 1009.73 1009.42 1009.12 1008.86 1008.67 1008.56 1008.54 1008.60 1008.74 1008.92 1009.12 1009.33 1009.53 1009.72 1009.91 1010.12 1010.35 1010.62 1010.94 1011.28 1011.65 1012.03 1012.41 1012.76 1013.09 1013.41 1013.71
1008.46 1008.62 1008.87 1009.17 1009.47 1009.76 1009.99 1010.18 1010.31 1010.39 1010.43 1010.43 1010.38 1010.28 1010.11 1009.88 1009.59 1009.27 1008.94 1008.63 1008.37 1008.20 1008.11 1008.11 1008.18 1008.31 1008.47 1008.65 1008.83 1009.01 1009.20 1009.40 1009.63 1009.90 1010.21 1010.56 1010.93 1011.30 1011.67 1012.02 1012.34 1012.64 1012.93
1008.05 1008.20 1008.46 1008.78 1009.11 1009.41 1009.68 1009.88 1010.03 1010.14 1010.21 1010.24 1010.23 1010.17 1010.05 1009.85 1009.60 1009.29 1008.96 1008.63 1008.34 1008.11 1007.96 1007.89 1007.90 1007.96 1008.07 1008.20 1008.33 1008.48 1008.64 1008.82 1009.04 1009.29 1009.59 1009.93 1010.28 1010.64 1010.99 1011.31 1011.61 1011.89 1012.15
1007.61 1007.76 1008.02 1008.36 1008.71 1009.04 1009.32 1009.56 1009.74 1009.88 1009.99 1010.06 1010.10 1010.10 1010.03 1009.90 1009.70 1009.44 1009.13 1008.81 1008.51 1008.26 1008.06 1007.93 1007.87 1007.87 1007.90 1007.96 1008.04 1008.14 1008.25 1008.40 1008.58 1008.82 1009.09 1009.40 1009.74 1010.07 1010.40 1010.69 1010.96 1011.20 1011.43
1007.19 1007.33 1007.60 1007.94 1008.30 1008.64 1008.95 1009.20 1009.41 1009.59 1009.73 1009.86 1009.95 1010.01 1010.02 1009.96 1009.83 1009.63 1009.37 1009.09 1008.80 1008.54 1008.32 1008.14 1008.02 1007.95 1007.92 1007.90 1007.91 1007.95 1008.01 1008.10 1008.25 1008.45 1008.70 1008.99 1009.30 1009.61 1009.90 1010.17 1010.39 1010.60 1010.78
1006.84 1006.98 1007.24 1007.56 1007.91 1008.25 1008.56 1008.82 1009.05 1009.25 1009.43 1009.59 1009.74 1009.86 1009.94 1009.95 1009.90 1009.77 1009.58 1009.35 1009.09 1008.85 1008.62 1008.42 1008.26 1008.13 1008.03 1007.95 1007.89 1007.85 1007.85 1007.90 1008.00 1008.17 1008.39 1008.65 1008.94 1009.23 1009.50 1009.73 1009.93 1010.08 1010.23
1006.64 1006.75 1006.97 1007.26 1007.57 1007.88 1008.16 1008.41 1008.64 1008.84 1009.04 1009.24 1009.44 1009.61 1009.74 1009.83 1009.84 1009.79 1009.67 1009.50 1009.30 1009.08 1008.87 1008.67 1008.49 1008.32 1008.17 1008.02 1007.90 1007.80 1007.75 1007.74 1007.80 1007.93 1008.12 1008.36 1008.63 1008.90 1009.15 1009.36 1009.53 1009.64 1009.74
1006.61 1006.68 1006.84 1007.06 1007.31 1007.55 1007.79 1008.00 1008.20 1008.40 1008.61 1008.82 1009.04 1009.25 1009.43 1009.57 1009.65 1009.67 1009.62 1009.51 1009.37 1009.20 1009.02 1008.84 1008.65 1008.46 1008.27 1008.09 1007.92 1007.77 1007.66 1007.60 1007.62 1007.71 1007.87 1008.09 1008.34 1008.60 1008.84 1009.03 1009.16 1009.24 1009.27
1006.74 1006.76 1006.85 1006.98 1007.14 1007.31 1007.47 1007.62 1007.79 1007.96 1008.16 1008.37 1008.60 1008.84 1009.05 1009.23 1009.36 1009.43 1009.44 1009.40 1009.32 1009.20 1009.07 1008.91 1008.74 1008.55 1008.35 1008.14 1007.93 1007.74 1007.59 1007.49 1007.46 1007.52 1007.65 1007.84 1008.07 1008.31 1008.53 1008.69 1008.79 1008.82 1008.80
1007.01 1006.97 1006.98 1007.03 1007.09 1007.17 1007.25 1007.35 1007.46 1007.60 1007.78 1007.99 1008.22 1008.46 1008.69 1008.89 1009.06 1009.17 1009.23 1009.24 1009.21 1009.15 1009.06 1008.94 1008.80 1008.63 1008.43 1008.21 1007.98 1007.76 1007.56 1007.43 1007.36 1007.37 1007.47 1007.63 1007.83 1008.03 1008.22 1008.34 1008.40 1008.37 1008.28
1007.36 1007.28 1007.23 1007.20 1007.18 1007.17 1007.19 1007.22 1007.29 1007.41 1007.56 1007.76 1007.99 1008.23 1008.46 1008.67 1008.85 1008.99 1009.08 1009.12 1009.14 1009.12 1009.07 1009.00 1008.89 1008.74 1008.56 1008.34 1008.10 1007.86 1007.64 1007.46 1007.35 1007.32 1007.36 1007.47 1007.62 1007.78 1007.91 1007.99 1007.98 1007.89 1007.73
1007.75 1007.64 1007.55 1007.47 1007.39 1007.34 1007.30 1007.30 1007.35 1007.44 1007.59 1007.78 1008.00 1008.23 1008.46 1008.67 1008.85 1008.99 1009.09 1009.15 1009.19 1009.20 1009.18 1009.14 1009.06 1008.94 1008.77 1008.56 1008.32 1008.07 1007.83 1007.61 1007.46 1007.37 1007.36 1007.40 1007.49 1007.58 1007.64 1007.64 1007.57 1007.41 1007.18
1008.11 1008.02 1007.92 1007.82 1007.72 1007.65 1007.60 1007.59 1007.63 1007.73 1007.88 1008.07 1008.29 1008.52 1008.74 1008.93 1009.09 1009.21 1009.30 1009.36 1009.40 1009.42 1009.41 1009.39 1009.33 1009.22 1009.07 1008.88 1008.65 1008.39 1008.13 1007.88 1007.69 1007.54 1007.46 1007.43 1007.44 1007.44 1007.42 1007.35 1007.20 1006.97 1006.67
1008.43 1008.37 1008.29 1008.21 1008.13 1008.07 1008.05 1008.06 1008.13 1008.25 1008.41 1008.62 1008.84 1009.06 1009.27 1009.44 1009.57 1009.67 1009.73 1009.76 1009.77 1009.77 1009.76 1009.72 1009.67 1009.57 1009.44 1009.25 1009.02 1008.77 1008.50 1008.23 1008.00 1007.81 1007.66 1007.55 1007.47 1007.40 1007.29 1007.14 1006.91 1006.61 1006.26
1008.68 1008.67 1008.65 1008.61 1008.58 1008.56 1008.58 1008.64 1008.75 1008.91 1009.11 1009.34 1009.57 1009.80 1009.99 1010.13 1010.23 1010.28 1010.29 1010.28 1010.24 1010.20 1010.16 1010.10 1010.03 1009.93 1009.79 1009.62 1009.40 1009.14 1008.87 1008.60 1008.34 1008.11 1007.91 1007.74 1007.59 1007.44 1007.25 1007.03 1006.74 1006.40 1006.01
1008.86 1008.91 1008.95 1008.97 1009.00 1009.05 1009.13 1009.25 1009.42 1009.63 1009.87 1010.13 1010.38 1010.60 1010.77 1010.89 1010.95 1010.95 1010.91 1010.84 1010.75 1010.65 1010.55 1010.46 1010.35 1010.23 1010.09 1009.91 1009.70 1009.45 1009.19 1008.92 1008.66 1008.41 1008.18 1007.97 1007.77 1007.56 1007.32 1007.04 1006.71 1006.34 1005.94
1008.98 1009.08 1009.17 1009.25 1009.35 1009.46 1009.60 1009.79 1010.02 1010.28 1010.57 1010.86 1011.13 1011.35 1011.52 1011.61 1011.64 1011.59 1011.50 1011.36 1011.21 1011.05 1010.89 1010.74 1010.59 1010.44 1010.27 1010.09 1009.88 1009.65 1009.41 1009.15 1008.90 1008.66 1008.42 1008.20 1007.97 1007.74 1007.47 1007.17 1006.83 1006.46 1006.07
1009.02 1009.17 1009.31 1009.44 1009.58 1009.75 1009.96 1010.20 1010.48 1010.79 1011.12 1011.44 1011.73 1011.96 1012.12 1012.21 1012.21 1012.13 1011.99 1011.80 1011.59 1011.37 1011.15 1010.94 1010.74 1010.55 1010.36 1010.16 1009.96 1009.74 1009.51 1009.29 1009.06 1008.84 1008.63 1008.42 1008.20 1007.96 1007.71 1007.41 1007.08 1006.73 1006.36
1009.01 1009.19 1009.36 1009.53 1009.71 1009.92 1010.17 1010.46 1010.78 1011.13 1011.49 1011.83 1012.14 1012.38 1012.55 1012.63 1012.62 1012.52 1012.36 1012.14 1011.89 1011.62 1011.35 1011.09 1010.85 1010.62 1010.40 1010.18 1009.97 1009.77 1009.56 1009.36 1009.17 1008.98 1008.81 1008.63 1008.44 1008.23 1008.00 1007.73 1007.43 1007.11 1006.79
1008.92 1009.13 1009.33 1009.53 1009.75 1009.99 1010.28 1010.59 1010.94 1011.32 1011.70 1012.06 1012.37 1012.63 1012.81 1012.90 1012.89 1012.80 1012.63 1012.40 1012.13 1011.84 1011.54 1011.25 1010.97 1010.71 1010.46 1010.23 1010.01 1009.81 1009.61 1009.44 1009.28 1009.13 1008.99 1008.85 1008.70 1008.53 1008.34 1008.11 1007.85 1007.57 1007.28
Thickness
5793 5794 5794 5792 5790 5788 5785 5783 5782 5781 5779 5779 5780 5780 5780 5779 5777 5775 5774 5771 5769 5768 5766 5764 5762 5761 5760 5759 5759 5758 5756 5754 5752 5749 5747 5745 5743 5740 5737 5735 5733 5732 5730
5792 5792 5791 5789 5787 5785 5785 5783 5780 5779 5779 5778 5777 5777 5779 5780 5781 5778 5775 5773 5770 5769 5767 5766 5764 5762 5761 5760 5760 5759 5759 5757 5754 5751 5748 5746 5744 5741 5739 5735 5733 5731 5729
5791 5789 5787 5786 5785 5782 5781 5778 5776 5775 5776 5777 5776 5776 5778 5780 5780 5779 5776 5774 5771 5770 5770 5769 5766 5764 5762 5760 5759 5759 5759 5758 5756 5753 5750 5748 5746 5744 5741 5738 5735 5731 5729
5786 5783 5781 5780 5780 5778 5776 5773 5770 5767 5766 5767 5770 5774 5777 5778 5778 5777 5775 5773 5771 5771 5772 5770 5768 5766 5763 5760 5758 5758 5758 5758 5757 5754 5751 5748 5746 5744 5742 5739 5736 5733 5730
5782 5778 5774 5773 5772 5770 5769 5767 5766 5762 5759 5759 5761 5766 5771 5774 5775 5775 5774 5773 5772 5771 5772 5772 5770 5768 5765 5762 5759 5757 5757 5756 5755 5753 5750 5747 5744 5742 5741 5738 5736 5734 5732
5776 5772 5769 5767 5764 5761 5761 5760 5758 5757 5754 5753 5752 5755 5761 5768 5772 5773 5773 5773 5771 5770 5771 5772 5771 5768 5765 5763 5760 5758 5756 5754 5753 5752 5750 5748 5745 5743 5741 5739 5737 5734 5732
5765 5762 5759 5757 5754 5751 5751 5751 5751 5749 5746 5746 5739 5739 5747 5759 5766 5770 5773 5772 5770 5770 5771 5770 5769 5767 5766 5763 5761 5758 5755 5753 5751 5750 5749 5748 5746 5744 5742 5740 5737 5734 5732
5754 5751 5748 5746 5744 5741 5740 5740 5739 5738 5737 5737 5730 5724 5725 5740 5754 5766 5769 5769 5767 5766 5766 5767 5766 5765 5764 5763 5759 5756 5754 5751 5749 5749 5748 5746 5745 5743 5741 5738 5735 5732 5729
5748 5744 5742 5739 5737 5734 5732 5733 5731 5728 5725 5727 5725 5717 5714 5721 5735 5750 5757 5760 5760 5760 5760 5761 5760 5760 5759 5759 5756 5753 5751 5750 5749 5749 5747 5745 5743 5742 5739 5736 5732 5730 5727
5741 5738 5735 5732 5729 5727 5725 5724 5724 5722 5718 5714 5714 5714 5716 5719 5718 5724 5736 5744 5748 5748 5749 5750 5751 5752 5753 5752 5751 5750 5749 5748 5747 5747 5746 5744 5740 5738 5737 5735 5732 5728 5726
5732 5729 5726 5724 5722 5719 5717 5715 5713 5712 5710 5706 5703 5704 5708 5712 5715 5711 5716 5724 5731 5737 5740 5741 5742 5744 5745 5746 5745 5744 5744 5743 5742 5742 5741 5739 5736 5734 5732 5731 5729 5727 5725
5721 5718 5715 5714 5712 5710 5708 5707 5705 5704 5702 5700 5699 5700 5701 5704 5706 5706 5706 5711 5716 5724 5731 5735 5737 5738 5737 5737 5738 5736 5736 5737 5737 5735 5733 5731 5730 5729 5728 5727 5725 5724 5723
5709 5707 5704 5702 5702 5701 5701 5700 5697 5696 5695 5694 5694 5695 5697 5698 5700 5699 5700 5703 5709 5715 5721 5726 5730 5730 5730 5729 5729 5728 5729 5729 5729 5728 5726 5725 5724 5722 5721 5720 5719 5719 5719
5699 5697 5693 5691 5691 5691 5692 5691 5690 5689 5688 5688 5688 5689 5689 5691 5694 5694 5695 5698 5699 5703 5707 5712 5719 5721 5722 5722 5719 5719 5720 5720 5720 5719 5718 5716 5715 5713 5712 5711 5710 5710 5711
5686 5684 5682 5680 5680 5680 5682 5682 5682 5681 5681 5681 5681 5682 5682 5684 5688 5690 5693 5694 5690 5686 5690 5700 5704 5710 5712 5713 5710 5710 5711 5713 5712 5710 5708 5707 5706 5705 5704 5704 5703 5704 5704
5671 5669 5669 5669 5668 5669 5672 5675 5676 5676 5675 5674 5674 5674 5675 5677 5679 5683 5687 5689 5688 5682 5680 5688 5691 5695 5699 5701 5702 5702 5705 5706 5705 5703 5700 5698 5697 5696 5696 5696 5696 5697 5699
5655 5656 5656 5658 5659 5662 5665 5669 5671 5671 5669 5668 5669 5669 5669 5672 5674 5678 5680 5681 5681 5679 5675 5680 5685 5688 5689 5690 5693 5696 5699 5700 5700 5695 5691 5690 5690 5688 5688 5688 5688 5689 5692
5641 5643 5645 5648 5652 5656 5659 5662 5664 5664 5663 5662 5662 5663 5664 5667 5668 5669 5671 5673 5674 5674 5672 5670 5675 5677 5679 5681 5683 5685 5688 5691 5692 5687 5682 5682 5683 5681 5679 5679 5679 5681 5685
5631 5634 5637 5641 5645 5649 5651 5654 5656 5657 5657 5655 5654 5655 5656 5657 5657 5659 5662 5663 5665 5667 5668 5666 5666 5668 5670 5671 5672 5674 5677 5679 5679 5675 5673 5674 5675 5674 5672 5671 5671 5673 5676
5624 5628 5632 5636 5640 5642 5644 5647 5648 5649 5648 5646 5645 5644 5645 5645 5645 5647 5651 5652 5654 5656 5659 5659 5658 5657 5656 5658 5660 5661 5663 5663 5660 5661 5663 5664 5664 5664 5663 5663 5663 5665 5667
5620 5623 5626 5630 5632 5634 5636 5638 5639 5638 5637 5636 5635 5634 5634 5634 5635 5637 5639 5640 5643 5643 5644 5645 5645 5644 5644 5644 5646 5648 5647 5647 5647 5647 5648 5650 5652 5653 5653 5654 5656 5658 5659
5617 5617 5620 5622 5623 5624 5625 5628 5630 5630 5630 5629 5628 5627 5626 5625 5627 5629 5630 5631 5632 5631 5630 5631 5630 5630 5631 5631 5632 5634 5635 5634 5633 5636 5637 5636 5638 5639 5641 5644 5648 5651 5653
5615 5613 5613 5612 5612 5612 5615 5618 5621 5622 5622 5621 5620 5619 5618 5615 5616 5620 5622 5622 5622 5623 5623 5621 5619 5618 5619 5619 5618 5620 5623 5622 5620 5624 5627 5625 5627 5627 5628 5630 5636 5641 5644
5614 5611 5609 5607 5606 5606 5607 5609 5612 5615 5614 5613 5612 5609 5605 5604 5606 5610 5614 5614 5614 5614 5615 5615 5614 5613 5612 5610 5608 5608 5610 5612 5612 5613 5615 5613 5616 5616 5617 5619 5623 5629 5633
5611 5609 5607 5604 5602 5601 5601 5602 5603 5607 5605 5603 5602 5600 5598 5597 5597 5601 5603 5602 5602 5604 5608 5608 5607 5606 5603 5600 5598 5598 5598 5597 5596 5599 5601 5601 5602 5605 5607 5608 5611 5616 5620
5608 5606 5603 5601 5598 5597 5595 5596 5597 5601 5599 5595 5592 5589 5587 5589 5590 5591 5593 5593 5591 5593 5596 5598 5600 5598 5595 5592 5591 5588 5585 5582 5581 5582 5584 5587 5589 5591 5594 5598 5600 5604 5608